Lid_Strength_Index
8 13 15 13 13 12 13 15 16 14 12 13 13 14 12 12 12 12 12 12 11 11 10 7 5 3 3 3 2 2 2 1 2 2 2 2 2 1 1 1 1 1 1 2
11 14 12 10 11 12 13 14 16 13 12 13 14 14 13 13 13 12 12 12 12 11 11 10 9 5 4 3 2 2 2 1 2 2 2 2 2 2 2 1 1 1 1 1
13 11 8 10 12 14 14 15 16 15 14 14 15 17 14 12 12 12 11 11 11 11 10 10 10 9 5 4 3 2 2 2 1 1 2 2 3 2 2 2 1 1 1 2
11 9 10 11 12 12 15 12 12 13 15 18 16 22 17 14 13 13 12 12 11 10 10 10 10 10 10 5 4 4 2 2 1 1 2 2 2 3 2 1 1 1 1 1
12 11 11 12 11 9 12 10 12 12 15 17 18 20 19 16 16 14 12 12 11 10 10 10 10 10 9 9 9 5 4 3 2 1 1 2 2 2 1 2 2 2 1 2
10 9 9 10 9 9 8 10 11 13 14 21 17 18 20 17 16 15 14 12 11 10 10 9 9 9 10 9 9 8 7 5 3 2 2 2 2 2 2 2 2 2 2 2
11 11 9 8 11 10 10 13 18 20 20 21 18 17 18 15 13 13 13 12 12 12 10 10 9 10 10 9 9 9 8 7 6 5 3 2 2 2 2 2 3 2 2 3
16 17 11 9 10 12 12 12 17 21 21 19 16 20 17 14 13 12 13 12 11 11 11 11 11 10 10 10 10 10 9 8 7 7 6 5 3 2 2 2 2 2 2 2
16 15 10 9 9 9 13 15 11 16 21 19 17 18 15 14 12 11 11 11 12 11 11 11 10 11 10 9 9 9 9 8 8 8 8 7 7 5 3 2 3 2 2 2
12 16 11 10 9 9 11 10 16 16 22 22 18 19 18 15 14 12 11 11 11 10 10 10 10 9 9 8 8 8 8 8 7 7 7 7 7 6 5 3 3 3 2 2
11 13 13 11 13 13 13 14 14 13 15 19 21 19 15 14 12 12 12 11 11 10 10 10 10 9 8 8 8 8 8 8 7 7 6 5 5 5 5 4 3 3 2 3
10 12 16 14 11 10 11 13 13 17 18 16 16 16 12 12 11 11 11 10 10 9 9 9 10 9 9 8 7 7 7 7 7 7 5 5 5 5 4 5 4 4 4 4
10 13 18 16 13 11 13 12 11 12 13 17 19 16 10 9 10 11 10 10 10 9 9 9 9 9 9 8 8 7 7 7 7 7 7 6 6 5 4 4 4 5 5 6
8 12 14 17 15 13 14 13 12 13 17 16 16 15 12 11 11 10 9 9 9 9 9 8 8 8 8 8 9 8 8 8 8 8 8 7 7 6 6 5 5 5 6 7
10 17 14 13 12 12 12 13 12 13 13 16 14 14 12 11 11 10 8 8 9 8 8 9 8 8 8 8 8 8 8 8 8 8 8 8 8 7 7 7 7 7 7 8
9 17 15 19 12 12 14 13 13 13 12 13 13 13 10 9 10 10 9 9 10 9 9 9 8 8 9 9 10 9 9 9 8 9 9 9 9 9 8 8 8 8 8 9
12 16 21 23 16 18 20 15 12 12 11 12 14 12 10 10 11 10 10 10 9 9 9 9 10 10 11 12 12 11 11 11 11 12 12 13 13 12 11 10 9 9 9 9
15 16 18 23 22 26 15 13 12 12 11 10 9 10 10 10 9 10 9 9 9 9 9 10 11 12 13 14 13 12 13 14 14 15 15 14 14 13 12 12 11 10 10 10
10 14 21 22 28 19 15 13 14 14 13 11 10 9 9 9 9 10 10 9 9 10 11 12 14 14 15 16 15 15 16 16 16 16 15 15 15 15 14 14 13 12 12 11
10 11 13 26 23 25 16 13 11 11 17 10 9 9 9 9 13 12 8 8 9 11 12 14 15 15 16 16 15 16 17 17 18 17 16 16 16 15 15 15 14 14 14 12
20 16 15 19 17 19 12 10 9 17 14 9 9 8 8 9 8 7 7 9 11 11 12 13 15 16 17 16 15 16 17 18 17 16 16 16 16 16 16 16 16 15 15 14
19 21 20 21 21 22 11 11 12 10 9 9 8 7 7 7 7 8 8 9 11 13 13 13 14 16 17 16 16 16 18 17 16 16 17 17 17 17 16 18 17 17 16 16
18 15 18 17 17 11 10 10 9 8 9 9 10 8 8 8 8 8 9 11 12 13 14 14 16 16 18 18 18 17 18 17 17 17 18 18 18 17 17 18 18 16 15 15
13 12 14 13 12 11 10 9 9 9 9 9 9 10 10 9 9 10 10 11 13 14 15 15 16 17 18 18 19 19 18 18 18 20 18 17 18 17 17 17 17 17 17 18
12 12 13 13 11 11 10 9 9 9 9 9 10 11 11 12 11 11 12 14 15 15 16 17 17 18 19 19 20 21 19 19 18 18 18 18 17 18 17 16 18 17 16 16
12 13 14 15 11 11 10 10 10 10 10 11 12 13 14 14 14 13 15 16 16 17 17 18 19 20 21 22 22 21 21 19 19 18 18 18 17 17 17 17 18 13 13 13